Regional Weather Roundup
Issued by NWS

Home | Current Version | Previous Version | Graphics & Text | Print | Product List | Glossary On
Versions: 1 2 3 4 5 6 7 8 9 10 11 12 13 14 15 16 17 18 19 20 21 22 23 24 25 26 27 28 29 30 31 32 33 34 35 36 37 38 39 40 41 42 43 44 45 46 47 48 49 50
000
ASUS45 KPSR 020510
RWRAZ

ARIZONA REGIONAL HOURLY WEATHER ROUNDUP
NATIONAL WEATHER SERVICE PHOENIX AZ
1000 PM MST WED OCT 01 2014

NOTE: FAIR INDICATES FEW OR NO CLOUDS BELOW 12,000 FEET WITH NO
SIGNIFICANT WEATHER AND/OR OBSTRUCTIONS TO VISIBILITY.

AZZ001>003-036-020600-
NORTHWEST ARIZONA

CITY           SKY/WX    TMP DP  RH WIND       PRES   REMARKS
BULLHEAD CITY  CLEAR     81  32  17 N13       29.91R
KINGMAN        CLEAR     58  37  45 NE7       30.04S
$$

AZZ004>008-015-016-018-020600-
NORTH CENTRAL ARIZONA

CITY           SKY/WX    TMP DP  RH WIND       PRES   REMARKS
GRAND CANYON   PTCLDY    37  30  75 CALM      30.18R HAZE
PRESCOTT       CLEAR     56  36  47 NW7       30.10R
FLAGSTAFF      CLEAR     48  32  53 NW3       30.17R
PAYSON         CLEAR     59  39  47 CALM      30.09R
PAGE           CLEAR     59  24  26 W8        30.10R
$$

AZZ009>014-017-020600-
NORTHEAST ARIZONA

CITY           SKY/WX    TMP DP  RH WIND       PRES   REMARKS
WINSLOW        CLEAR     57  36  45 W9        30.07R
SAINT JOHNS    PTCLDY    60  38  43 SW9       30.05S
WINDOW ROCK    CLEAR     52  36  54 N8        30.11R
SHOW LOW       PTCLDY    52  37  58 SW7       30.14R
$$

AZZ023-020600-
GREATER PHOENIX AREA

CITY           SKY/WX    TMP DP  RH WIND       PRES   REMARKS
PHOENIX        CLEAR     80  47  31 CALM      29.82R
BUCKEYE          N/A     70  48  46 CALM      29.84R
LUKE AFB       CLEAR     76  50  40 N5        29.83R
DEER VALLEY    CLEAR     72  52  49 CALM      29.85R
SCOTTSDALE     CLEAR     77  49  37 CALM      29.87R
MESA-GATEWAY   CLEAR     72  52  49 CALM      29.87R
$$

AZZ027-028-020600-
SOUTHWEST MARICOPA COUNTY AND PINAL COUNTY

CITY           SKY/WX    TMP DP  RH WIND       PRES   REMARKS
CASA GRANDE    CLEAR     70  43  37 CALM      29.86R
GILA BEND      CLEAR     75  48  38 SW3       29.77R
$$

AZZ503-504-507>509-020600-
SOUTHEAST ARIZONA

CITY           SKY/WX    TMP DP  RH WIND       PRES   REMARKS
TUCSON         CLEAR     73  37  27 S5        29.94R
DAVIS-MONTHAN  CLEAR     72  37  28 S6        29.92R
NOGALES        CLEAR     60  46  59 E8        30.00S
SIERRA VISTA   CLEAR     63  43  48 NW5       30.04S
DOUGLAS        CLEAR     60  43  53 N10       30.01R
SAFFORD        CLEAR     68  33  27 NW12      29.91S
$$

AZZ020-021-025-026-031-020600-
SOUTHWEST ARIZONA

CITY           SKY/WX    TMP DP  RH WIND       PRES   REMARKS
YUMA           CLEAR     83  43  24 W5        29.80R
$$

CAZ031-033-041-043-047-048-061-020600-
SOUTHERN CALIFORNIA

CITY           SKY/WX    TMP DP  RH WIND       PRES   REMARKS
DOWNTOWN L.A.  CLEAR     68  62  81 CALM      29.86R
L.A. AIRPORT   CLEAR     67  63  87 SW5       29.87R
SAN DIEGO      PTCLDY    70  62  76 CALM      29.87R
BURBANK        CLEAR     70  60  70 E6        29.87R
ONTARIO        CLEAR     71  59  65 S5        29.88R
RIVERSIDE      CLEAR     73  58  59 CALM      29.88R
PALM SPRINGS   CLEAR     88  34  14 W7        29.86R
EL CENTRO NAS  CLEAR     77  39  25 W7        29.79R
IMPERIAL       CLEAR     79  41  25 W5        29.78R
BLYTHE         CLEAR     82  38  20 NW9       29.83R
NEEDLES        CLEAR     81  26  13 N10       29.91R
$$

NVZ020-UTZ003-020600-
SOUTHERN NEVADA-UTAH

CITY           SKY/WX    TMP DP  RH WIND       PRES   REMARKS
LAS VEGAS      CLEAR     72  31  22 N10       30.00R
SALT LAKE CITY CLEAR     46  37  71 SE7       30.21R
$$

NMZ009-TXZ055-020600-
NEW MEXICO-WEST TEXAS

CITY           SKY/WX    TMP DP  RH WIND       PRES   REMARKS
ALBUQUERQUE    MOCLDY    65  35  33 N10       30.00R
EL PASO        CLEAR     74  32  21 W3        29.92S
$$


........................KEY........................
SKY/WX - SKY CONDITION/WEATHER
TMP    - TEMPERATURE IN FAHRENHEIT
DP     - DEW POINT IN FAHRENHEIT
RH     - RELATIVE HUMIDITY IN PERCENT
WIND   - DIRECTION AND SPEED IN MILES PER HOUR (MPH)
VRB    - VARIABLE WIND DIRECTION
PRES   - MEAN SEA LEVEL PRESSURE IN INCHES OF MERCURY
         F - FALLING PRESSURE   R - RISING PRESSURE
         S - STEADY PRESSURE
VSB    - VISIBILITY IN MILES
HX     - HEAT INDEX IN FAHRENHEIT
WCI    - WIND CHILL INDEX IN FAHRENHEIT
TC     - TEMPERATURE IN CELSIUS WHICH IS ALSO KNOWN AS
         TEMPERATURE IN CENTIGRADE
AFB    - AIR FORCE BASE
         LUKE AFB IS LUKE AIR FORCE BASE
         DAVIS-MONTHAN IS DAVIS-MONTHAN AIR FORCE BASE
NAS    - NAVAL AIR STATION
         EL CENTRO NAS IS EL CENTRO NAVAL AIR STATION
N/A    - NOT AVAILABLE


USA.gov is the U.S. government's official web portal to all federal, state and local government web resources and services.